Beaufort, SC

11:55 PM EDT on July 23, 2017 (GMT -0400)
Beaufort

Weather History for KARW - November, 2013

Change the Weather History Date:

Tuesday, November 26, 2013

  Actual Average (KNBC) Record (KNBC)
Temperature  
Mean Temperature 60 °F -  
Max Temperature 69 °F 67 °F 83 °F (1973)
Min Temperature 50 °F 47 °F 21 °F (1950)
Degree Days  
Heating Degree Days 6    
Growing Degree Days 10 (Base 50)    
Moisture  
Dew Point 61 °F    
Average Humidity 98    
Maximum Humidity 100    
Minimum Humidity 83    
Precipitation  
Precipitation 0.01 in - - ()
Sea Level Pressure  
Sea Level Pressure 29.91 in    
Wind  
Wind Speed 10 mph (SE)    
Max Wind Speed 21 mph    
Max Gust Speed 29 mph    
Visibility 6 miles    
Events Rain , Thunderstorm    
Averages and records for this station are not official NWS values.
T = Trace of Precipitation, MM = Missing Value Source: NWS Daily Summary

Daily Weather History Graph

Daily Weather History Graph

Search for Another Location

Airport or City:

Trip Planner

Search our weather history database for the weather conditions in past years. The results will help you decide how hot, cold, wet, or windy it might be!

Date:

Astronomy

Nov. 26, 2013 Rise Set
Actual Time 7:01 AM EST 5:17 PM EST
Civil Twilight 6:35 AM EST 5:44 PM EST
Nautical Twilight 6:05 AM EST 6:14 PM EST
Astronomical Twilight 5:35 AM EST 6:43 PM EST
Moon 12:26 AM EST (11/26) 1:03 PM EST (11/26)
Length of Visible Light 11h 08m
Length of Day
10h 15m
Last Quarter, 41% of the Moon is Illuminated
Nov 26
Last Quarter
Dec 2
New
Dec 9
First Quarter
Dec 17
Full
Dec 25
Last Quarter

Hourly Weather History & Observations

Time (EST) Temp. Dew Point Humidity Pressure Visibility Wind Dir Wind Speed Gust Speed Precip Events Conditions
12:15 AM 50.0 °F 48.2 °F 94% 30.20 in 7.0 mi NE 13.8 mph - N/A   Clear
12:35 AM 50.0 °F 50.0 °F 100% 30.19 in 7.0 mi NE 12.7 mph - N/A   Scattered Clouds
12:55 AM 51.8 °F 50.0 °F 94% 30.19 in 7.0 mi NE 10.4 mph - N/A   Scattered Clouds
1:15 AM 51.8 °F 50.0 °F 94% 30.19 in 7.0 mi NNE 8.1 mph - N/A   Scattered Clouds
1:35 AM 51.8 °F 50.0 °F 94% 30.18 in 7.0 mi NNE 10.4 mph - N/A   Scattered Clouds
1:55 AM 51.8 °F 50.0 °F 94% 30.17 in 7.0 mi NNE 11.5 mph - N/A   Scattered Clouds
2:15 AM 51.8 °F 51.8 °F 100% 30.16 in 7.0 mi NNE 9.2 mph - N/A   Scattered Clouds
2:35 AM 51.8 °F 51.8 °F 100% 30.14 in 7.0 mi NNE 11.5 mph - N/A   Scattered Clouds
2:55 AM 51.8 °F 51.8 °F 100% 30.14 in 7.0 mi NE 9.2 mph - N/A   Clear
3:15 AM 51.8 °F 51.8 °F 100% 30.13 in 7.0 mi NE 10.4 mph - N/A   Scattered Clouds
3:35 AM 51.8 °F 51.8 °F 100% 30.13 in 7.0 mi NNE 6.9 mph - N/A   Scattered Clouds
3:55 AM 51.8 °F 51.8 °F 100% 30.12 in 7.0 mi NE 10.4 mph - N/A   Scattered Clouds
4:15 AM 51.8 °F 51.8 °F 100% 30.13 in 7.0 mi NNE 6.9 mph - N/A   Scattered Clouds
4:35 AM 51.8 °F 50.0 °F 94% 30.12 in 10.0 mi NNE 6.9 mph - N/A   Mostly Cloudy
4:55 AM 50.0 °F 50.0 °F 100% 30.10 in 7.0 mi NE 10.4 mph - N/A   Mostly Cloudy
5:15 AM 50.0 °F 50.0 °F 100% 30.10 in 7.0 mi NE 6.9 mph - N/A   Mostly Cloudy
5:35 AM 50.0 °F 50.0 °F 100% 30.08 in 7.0 mi NE 9.2 mph - N/A   Mostly Cloudy
5:55 AM 50.0 °F 50.0 °F 100% 30.08 in 7.0 mi NE 9.2 mph - N/A   Scattered Clouds
6:15 AM 50.0 °F 50.0 °F 100% 30.07 in 7.0 mi NE 8.1 mph - N/A   Mostly Cloudy
6:35 AM 51.8 °F 50.0 °F 94% 30.06 in 7.0 mi NE 5.8 mph - N/A   Scattered Clouds
6:55 AM 51.8 °F 51.8 °F 100% 30.06 in 7.0 mi NE 4.6 mph - N/A   Scattered Clouds
7:15 AM 51.8 °F 51.8 °F 100% 30.06 in 7.0 mi NNE 4.6 mph - N/A   Mostly Cloudy
7:35 AM 51.8 °F 51.8 °F 100% 30.05 in 7.0 mi NE 4.6 mph - N/A   Overcast
7:55 AM 53.6 °F 53.6 °F 100% 30.04 in 7.0 mi ENE 4.6 mph - N/A   Mostly Cloudy
8:15 AM 53.6 °F 53.6 °F 100% 30.04 in 7.0 mi ENE 4.6 mph - N/A   Mostly Cloudy
8:35 AM 55.4 °F 53.6 °F 94% 30.03 in 7.0 mi NE 3.5 mph - N/A   Mostly Cloudy
8:55 AM 62.6 °F 62.6 °F 100% 30.01 in 7.0 mi ESE 6.9 mph - N/A   Scattered Clouds
9:15 AM 68.0 °F 62.6 °F 83% 30.01 in 5.0 mi ESE 6.9 mph - N/A   Clear
9:35 AM 68.0 °F 62.6 °F 83% 30.00 in 7.0 mi SE 8.1 mph 17.3 mph N/A   Clear
9:55 AM 68.0 °F 62.6 °F 83% 29.99 in 7.0 mi SE 10.4 mph 19.6 mph N/A   Light Drizzle
10:15 AM 68.0 °F 64.4 °F 88% 30.00 in 7.0 mi SE 9.2 mph 16.1 mph N/A Rain Rain
10:35 AM 68.0 °F 64.4 °F 88% 29.99 in 10.0 mi SE 6.9 mph - N/A Rain Rain
10:55 AM 66.2 °F 64.4 °F 94% 29.97 in 7.0 mi SE 10.4 mph - N/A   Drizzle
11:15 AM 66.2 °F 64.4 °F 94% 29.96 in 7.0 mi SE 6.9 mph - 0.01 in Rain Light Rain
11:35 AM 66.2 °F 66.2 °F 100% 29.95 in 7.0 mi SE 9.2 mph 17.3 mph 0.01 in Rain Light Rain
11:55 AM 68.0 °F 66.2 °F 94% 29.93 in 4.0 mi SSE 8.1 mph 16.1 mph 0.01 in Rain Heavy Rain
12:15 PM 66.2 °F 66.2 °F 100% 29.91 in 1.8 mi SE 9.2 mph 16.1 mph N/A Rain Heavy Rain
12:35 PM 66.2 °F 66.2 °F 100% 29.89 in 3.0 mi SE 6.9 mph 16.1 mph N/A Rain Heavy Rain
12:55 PM 68.0 °F 68.0 °F 100% 29.87 in 4.0 mi SE 8.1 mph 19.6 mph N/A Rain Rain
1:15 PM 68.0 °F 68.0 °F 100% 29.87 in 3.0 mi SSE 8.1 mph - N/A Rain Heavy Rain
1:35 PM 66.2 °F 66.2 °F 100% 29.83 in 5.0 mi SSE 10.4 mph 17.3 mph N/A Rain Light Rain
1:55 PM 68.0 °F 68.0 °F 100% 29.81 in 5.0 mi SE 12.7 mph 20.7 mph N/A Rain Light Rain
2:15 PM 68.0 °F 68.0 °F 100% 29.80 in 5.0 mi SE 10.4 mph 17.3 mph N/A Rain Light Rain
2:35 PM - - N/A% 29.77 in 2.5 mi SE 12.7 mph 19.6 mph N/A Rain Rain
2:55 PM 68.0 °F 68.0 °F 100% 29.77 in 4.0 mi SSE 11.5 mph 18.4 mph N/A Rain Rain
3:15 PM 68.0 °F 68.0 °F 100% 29.75 in 5.0 mi SSE 11.5 mph 20.7 mph N/A Rain Light Rain
3:35 PM 68.0 °F 68.0 °F 100% 29.76 in 5.0 mi South 11.5 mph 17.3 mph N/A Rain Light Rain
3:55 PM 69.8 °F 69.8 °F 100% 29.75 in 5.0 mi South 9.2 mph 18.4 mph N/A Rain Rain
4:15 PM 69.8 °F 69.8 °F 100% 29.77 in 2.5 mi South 13.8 mph 23.0 mph N/A Rain Heavy Rain
4:35 PM 68.0 °F 68.0 °F 100% 29.75 in 2.0 mi SSW 12.7 mph 21.9 mph N/A Rain , Thunderstorm Thunderstorms and Rain
4:55 PM 69.8 °F 69.8 °F 100% 29.75 in 5.0 mi South 9.2 mph - N/A   Overcast
5:15 PM 68.0 °F 68.0 °F 100% 29.75 in 4.0 mi South 9.2 mph 17.3 mph N/A   Overcast
5:35 PM 68.0 °F 68.0 °F 100% 29.75 in 3.0 mi South 8.1 mph - N/A   Overcast
5:55 PM 68.0 °F 68.0 °F 100% 29.74 in 3.0 mi SSW 8.1 mph - N/A   Overcast
6:15 PM 68.0 °F 68.0 °F 100% 29.74 in 4.0 mi South 9.2 mph 16.1 mph N/A   Overcast
6:35 PM 68.0 °F 68.0 °F 100% 29.73 in 4.0 mi SSW 10.4 mph 17.3 mph N/A   Overcast
6:55 PM 68.0 °F 68.0 °F 100% 29.74 in 4.0 mi South 9.2 mph 18.4 mph N/A   Overcast
7:15 PM 68.0 °F 68.0 °F 100% 29.73 in 4.0 mi South 10.4 mph 19.6 mph N/A   Overcast
7:35 PM 68.0 °F 68.0 °F 100% 29.73 in 5.0 mi SSW 11.5 mph 19.6 mph N/A Thunderstorm Mostly Cloudy
7:55 PM 66.2 °F 66.2 °F 100% 29.72 in 5.0 mi SSW 8.1 mph 18.4 mph N/A   Light Drizzle
8:15 PM 68.0 °F 68.0 °F 100% 29.71 in 4.0 mi SSW 9.2 mph 20.7 mph N/A   Overcast
8:35 PM 66.2 °F 66.2 °F 100% 29.71 in 4.0 mi South 11.5 mph 20.7 mph N/A Thunderstorm Overcast
8:55 PM 68.0 °F 68.0 °F 100% 29.71 in 5.0 mi South 11.5 mph 20.7 mph N/A Rain Light Rain
9:15 PM 68.0 °F 68.0 °F 100% 29.73 in 3.0 mi SW 20.7 mph 28.8 mph N/A Rain , Thunderstorm Heavy Thunderstorms and Rain
9:35 PM 68.0 °F 68.0 °F 100% 29.70 in 7.0 mi SW 10.4 mph 19.6 mph N/A Rain Light Rain
9:55 PM 68.0 °F 68.0 °F 100% 29.70 in 10.0 mi SSW 6.9 mph - N/A Rain Rain
10:15 PM 68.0 °F 68.0 °F 100% 29.68 in 7.0 mi SSW 5.8 mph - N/A Rain Light Rain
10:35 PM 68.0 °F 68.0 °F 100% 29.67 in 7.0 mi South 6.9 mph - N/A Rain Light Rain
10:55 PM 68.0 °F 68.0 °F 100% 29.64 in 7.0 mi South 9.2 mph - N/A Rain Light Rain
11:15 PM 66.2 °F 66.2 °F 100% 29.63 in 7.0 mi South 12.7 mph 20.7 mph N/A   Light Drizzle
11:35 PM 64.4 °F 64.4 °F 100% 29.63 in 5.0 mi South 10.4 mph 21.9 mph N/A   Scattered Clouds
11:55 PM 66.2 °F 66.2 °F 100% 29.62 in 5.0 mi South 13.8 mph 23.0 mph N/A   Mostly Cloudy